Starlink 31932

operational
NORAD ID: 59929 Int'l Des: 2024-106 Owner: SPXS Country: US Constellation: starlink
LEOCIRCULAR

About Starlink 31932

Description loading...

Live Position

Loading 3D Globe...

Upcoming Passes

Altitude History

Altitude vs Time

uPlot chart will show altitude changes over time

Two-Line Element Set

1 59929U 24106H 25257.30989731 .00000951 00000-0 44008-4 0 9993
2 59929 42.9966 245.4122 0002286 270.7576 89.3013 15.27656632 73584
Epoch: Sep 14, 2025 • Age: 26 hours

Current Status

Altitude 494.6 km
Velocity 7.62 km/s
Sub-Earth Point -43.15°S, 9.93°E
Launch Date Jun 1, 2024
Age 1.2 years
Type internet

Technical Details

Classification Payload
Mass 730.00 kg
Dry Mass 700.00 kg
Total Mass 730.00 kg
Length 0.30 m
Diameter 4.10 m
Span 29.00 m
Shape Box + pan
Manufacturer SPXS
Bus Type Starlink V2M
Phase Status In Orbit
Owner/State SPXS/US

Large Constellations

Loading constellations...